Location: Oshawa
(43.9000°N, 78.8670°W)
Time: 22:02:30
(UTC-04:00)

Daily predictions for brighter satellites

Satellite Brightness Start Highest point End
(mag) Time Altitude Azimuth Time Altitude Azimuth Time Altitude Azimuth
Cosmos 2278 4.5 21:11:56 10° NNW 21:17:16 39° ENE 21:22:33 10° SE
COSMOS 2406 3.7 21:14:35 10° SSW 21:20:17 69° WNW 21:25:59 10° NNE
Cosmos 1743 3.7 21:18:44 10° NNW 21:22:32 50° W 21:26:18 10° S
Okean 1-7 Rocket 3.7 21:19:22 10° S 21:23:44 57° E 21:28:11 10° NNE
YAOGAN 6 2.8 21:20:57 10° SSE 21:24:20 50° ENE 21:27:45 10° N
Cosmos 1606 Rocket 4.2 21:22:01 10° N 21:26:04 37° ENE 21:30:05 10° SE
Okean 2 3.9 21:22:42 10° SSE 21:26:30 40° E 21:30:21 10° NNE
Meteor 1-15 Rocket 4.3 21:25:57 10° N 21:31:31 63° ENE 21:37:00 10° SSE
Cosmos 1025 Rocket 3.0 21:27:36 10° S 21:31:48 61° E 21:36:01 10° NNE
SPOT 5 3.9 21:28:29 10° ESE 21:32:04 26° ENE 21:35:43 10° N
Cosmos 1697 Rocket 4.0 21:27:56 10° N 21:32:43 28° NE 21:37:29 10° ESE
CZ-4B DEB 2.8 21:30:04 10° S 21:33:02 73° WSW 21:36:02 10° NNW
SAR-Lupe-1 4.1 21:29:30 10° SSE 21:33:05 87° WSW 21:36:42 10° NNW
Cosmos 1726 Rocket 4.2 21:30:56 10° N 21:35:00 38° ENE 21:39:02 10° SE
MOS 1-B Rocket 4.5 21:29:48 10° SE 21:35:27 50° ENE 21:41:55 10° N
Cosmos 2341 Rocket 4.4 21:29:43 10° N 21:35:53 49° ENE 21:42:03 10° SSE
Cosmos 405 3.1 21:33:23 10° NNW 21:36:58 77° W 21:40:29 10° S
Cosmos 2369 4.1 21:32:21 10° NNW 21:37:59 55° ENE 21:43:25 11° SE
Cosmos 1666 3.7 21:36:19 10° NNW 21:39:55 45° W 21:43:30 10° SSW
USA 186 4.3 21:39:06 10° SW 21:41:27 19° W 21:43:44 10° NW
CENTAUR R/B 4.4 21:34:27 10° NW 21:41:34 36° WSW 21:48:59 10° S
COSMOS 2487 3.4 21:38:51 10° SSE 21:41:58 29° ESE 21:45:06 10° NE
MetOp-A 4.4 21:41:32 10° SSE 21:46:45 57° ENE 21:52:00 10° N
ERS-1 Rocket 3.0 21:41:57 10° SSE 21:46:57 74° ENE 21:51:58 10° N
Cosmos 1371 Rocket 4.3 21:43:03 10° NNW 21:48:22 72° WSW 21:53:36 10° S
USA 245 3.9 21:47:18 14° ESE 21:48:29 18° ENE 21:50:10 10° NNE
Cosmos 1833 Rocket 3.4 21:44:51 10° SSE 21:49:45 32° ESE 21:54:42 10° NE
Cosmos 1238 Rocket 4.3 21:44:56 10° SSW 21:51:42 78° W 21:57:59 10° N
ISS -2.2 21:48:36 10° W 21:51:44 39° NNW 21:54:52 10° NE
CRYOSAT 2 4.4 21:47:20 10° S 21:52:10 89° W 21:57:03 10° N
SPOT 1/Viking Rocket 4.4 21:49:30 12° SE 21:53:42 35° ENE 21:58:21 10° N
Cosmos 2058 Rocket 3.5 21:50:37 10° N 21:54:54 47° ENE 21:58:31 14° SSE
Meteor 1-29 4.3 21:58:01 10° N 22:01:13 40° WNW 22:04:23 10° SW
Cosmos 1437 Rocket 3.1 22:01:35 10° NNW 22:05:24 63° W 22:09:16 10° S
YAOGAN 11 4.2 22:02:03 15° SSE 22:05:34 64° ENE 22:09:54 10° N
Cosmos 2181 Rocket 4.1 21:59:44 10° S 22:05:59 64° E 22:12:11 10° NNE
ASTEX 1 3.9 22:02:19 10° S 22:07:08 59° W 22:11:59 10° NNW
Intercosmos 24 4.4 22:03:53 10° NNW 22:07:32 51° W 22:11:01 10° S
Cosmos 1515 3.6 22:09:51 10° S 22:13:39 88° W 22:17:29 10° N
H-2A R/B 3.7 22:11:41 14° ESE 22:14:18 23° ENE 22:17:50 10° NNE
Cosmos 1980 Rocket 3.0 22:16:48 10° NNW 22:22:05 39° ENE 22:25:49 18° ESE
Cosmos 1626 Rocket 4.2 22:21:47 22° SE 22:23:59 37° E 22:27:58 10° NNE
ARGOS 3.2 22:20:51 16° SSE 22:25:16 89° WSW 22:30:44 10° NNW
Cosmos 2228 3.0 22:28:40 10° N 22:32:58 79° W 22:35:49 21° S
TELKOM 3 3.8 22:30:55 10° WNW 22:33:14 45° SSW 22:33:54 36° S
Cosmos 2322 Rocket 4.0 22:29:19 10° N 22:33:32 21° NE 22:37:39 10° E
Cosmos 921 Rocket 3.9 22:29:27 10° NNW 22:33:45 46° WSW 22:37:02 16° S
Cosmos 1953 4.4 22:31:46 10° NNE 22:34:09 15° ENE 22:35:24 13° E
Tiangong 2 1.0 22:35:11 10° W 22:38:21 68° S 22:39:21 39° ESE
SL-8 Rocket 4.0 22:33:09 10° N 22:39:27 89° W 22:44:11 19° S
H-2A R/B 1.9 22:38:01 24° SSE 22:41:06 82° ENE 22:46:13 10° NNW
Cosmos 1766 3.8 22:37:35 10° N 22:41:18 41° ENE 22:42:36 31° ESE
Landsat 7 3.9 22:40:01 26° SE 22:42:35 64° ENE 22:47:18 10° N
Cosmos 2366 rocket 3.9 22:40:11 10° N 22:46:22 78° E 22:50:17 24° SSE
CZ-3A R/B 1.3 22:49:25 10° WSW 22:51:31 31° NW 22:51:31 31° NW
Lacrosse 5 rocket 3.4 22:51:36 10° NNW 22:55:36 27° NNE 22:59:32 10° E
Meteor 1-4 Rocket 2.9 22:53:24 10° NNW 22:56:56 58° W 22:58:16 33° SSW
Terra 1.9 22:55:30 32° SE 22:57:36 63° ENE 23:02:19 10° N
Cosmos 1602 Rocket 3.4 22:57:24 28° S 22:59:39 88° E 23:04:00 10° N
Cosmos 2082 Rocket 2.6 22:54:53 10° SW 23:00:31 66° WNW 23:06:10 10° NNE
Cosmos 1269 Rocket 4.0 23:01:07 25° S 23:04:12 68° ESE 23:09:29 10° NNE
Cosmos 1420 Rocket 4.1 23:01:16 10° NNW 23:06:31 70° WSW 23:08:59 31° S
DMSP B5D2-2 4.0 23:03:31 10° NNE 23:08:50 84° ESE 23:11:57 25° S
Cosmos 1805 3.6 23:06:15 10° N 23:10:02 48° ENE 23:10:42 43° ESE
SPOT 5 4.1 23:07:20 16° SSW 23:10:04 30° W 23:13:57 10° NW
Cosmos 1048 Rocket 3.9 23:08:12 24° SSW 23:11:18 81° ESE 23:16:31 10° NNE
Meteor 2-14 Rocket 4.4 23:06:25 10° N 23:12:31 86° W 23:15:45 30° S
deb Chang Zheng 4 3.6 23:09:04 10° NNE 23:13:21 60° ESE 23:14:27 44° SSE
Meteor 1-22 Rocket 4.4 23:11:17 10° NNW 23:16:32 64° W 23:19:21 28° SSW
Cosmos 1697 Rocket 3.2 23:11:32 10° NW 23:16:56 49° WSW 23:19:38 28° SSW
Cosmos 1758 3.7 23:13:38 10° N 23:17:30 46° ENE 23:18:04 42° ESE
Cosmos 389 Rocket 3.3 23:15:14 10° N 23:18:28 36° ENE 23:18:31 36° ENE
Spot 4 4.0 23:21:37 40° SE 23:23:07 60° ENE 23:27:52 10° N
USA 267 4.2 23:18:10 10° ENE 23:22:58 25° ESE 23:22:58 25° ESE
Lacrosse 5 2.9 23:25:30 28° ESE 23:25:30 28° ESE 23:28:50 10° ENE
CARTOSAT-1 3.7 23:24:03 42° SSW 23:25:22 67° WSW 23:29:41 10° NNW
Cosmos 2360 4.2 23:20:05 10° NNW 23:25:50 84° WSW 23:28:04 39° SSE
Iridium 2 3.6 23:23:20 10° N 23:27:08 85° W 23:27:42 63° S
SL-16 R/B 2.8 23:21:41 10° NNW 23:27:09 46° ENE 23:29:33 29° ESE
Timation 2 Rocket 4.1 23:20:58 10° SSW 23:27:19 73° WNW 23:33:27 10° NNE
ISS -1.1 23:26:16 10° NW 23:28:50 21° N 23:31:26 10° NE
NOSS 3-1 (C) 4.3 23:22:27 10° NNW 23:29:53 64° NE 23:34:52 26° ESE
Cosmos 1833 Rocket 3.9 23:28:18 10° SW 23:33:33 40° WNW 23:38:51 10° NNE
IGS 5A 3.8 23:32:35 43° SSW 23:33:37 56° W 23:37:44 10° NNW
SeaSat 1 4.3 23:30:48 13° E 23:33:42 22° NE 23:37:24 10° N
DELTA 2 DEB (DPAF) 4.2 23:34:36 51° SE 23:35:35 69° ENE 23:40:04 10° N
SL-19 R/B 4.1 23:32:19 10° NNE 23:37:40 79° WNW 23:40:12 31° SSW
ATLAS CENTAUR R/B 1.8 23:34:33 10° NNW 23:38:05 43° NE 23:38:30 41° ENE
Cosmos 1842 3.6 23:38:52 46° SW 23:39:45 60° W 23:43:40 10° N
Cosmos 1271 Rocket 3.3 23:36:06 10° NNW 23:39:54 50° W 23:40:35 44° SW
CZ-4C R/B 3.0 23:45:31 77° ENE 23:45:31 77° ENE 23:49:07 10° N
Cosmos 1758 Rocket 3.4 23:47:43 64° SE 23:48:09 70° E 23:52:30 10° NNE
Cosmos 1733 3.6 23:45:00 10° N 23:48:41 49° ENE 23:48:41 49° ENE
Cosmos 2251 Rocket 3.8 23:47:56 46° SE 23:48:47 51° ESE 23:54:00 10° NNE
Cosmos 1544 3.7 23:45:51 10° NNW 23:49:19 44° W 23:49:33 43° WSW
H-2A R/B 3.1 23:48:48 33° SW 23:50:03 40° W 23:54:20 10° NNW
